Regional Weather Roundup
Issued by NWS

Home | Current Version | Previous Version | Text Only | Print | Product List | Glossary On
Versions: 1 2 3 4 5 6 7 8 9 10 11 12 13 14 15 16 17 18 19 20 21 22 23 24 25 26 27 28 29 30 31 32 33 34 35 36 37 38 39 40 41 42 43 44 45 46 47 48 49 50
000
ASHW40 PHFO 190010
RWRHI

WEATHER ROUNDUP FOR HAWAII
NATIONAL WEATHER SERVICE HONOLULU HI
200 PM HST FRI APR 18 2014

THIS IS AN AUTOMATED REPORT THAT HAS NOT BEEN QUALITY CONTROLLED.

NOTE..."FAIR" INDICATES FEW OR NO CLOUDS BELOW 12,000 FEET WITH NO
SIGNIFICANT WEATHER AND/OR OBSTRUCTIONS TO VISIBILITY.

* - THESE SITES REPORT LIMITED FIELDS

HIZ001>004-190100-
KAUAI-NIIHAU-

CITY           SKY/WX    TMP DP  RH WIND       PRES   REMARKS
LIHUE APT      CLOUDY    79  71  76 NE13      30.13S
PORT ALLEN*      N/A     84 N/A N/A E16G23      N/A
POIPU*           N/A     82 N/A N/A NE10G18     N/A
PRINCEVILLE*   NOT AVBL
KOKOLE POINT*  NOT AVBL
MOLOAA DAIRY*  NOT AVBL
WAIMEA HTS*    NOT AVBL
PUU OPAE*      NOT AVBL
PUU LUA*       NOT AVBL
MAKAHA RIDGE*  NOT AVBL
$$

HIZ005>011-190100-
OAHU-

CITY           SKY/WX    TMP DP  RH WIND       PRES   REMARKS
HONOLULU       PTSUNNY   84  65  52 E20G26    30.08F
KALAELOA       PTSUNNY   86  65  49 NE10G20   30.08F
KANEOHE MCB    PTSUNNY   81  66  61 E10G20    30.10F
WHEELER FIELD  FAIR      80  65  61 E18       30.10F
BELLOWS*       NOT AVBL
KAHUKU*        NOT AVBL
WHEELER*       NOT AVBL
WAIANAE HARBOR NOT AVBL
DILLINGHAM*    NOT AVBL
KAHUKU TRN*      N/A     77  70  78 E10G22      N/A
KAWAILOA*      NOT AVBL
KII*             N/A     79  70  73 E17G23      N/A
MAKUA RANGE*     N/A     84  70  61 NE13G26     N/A
OAHU FOREST NW NOT AVBL
SCHOFIELD BRK*   N/A     77  66  69 MISG        N/A
SCHOFIELD S*     N/A     75 N/A N/A NE2G10      N/A
WAIANAE VLY*   NOT AVBL
KUAOKALA*      NOT AVBL
HONOULIUULI*   NOT AVBL
MOKUOLOE IS*   NOT AVBL
PALEHUA*       NOT AVBL
WAIAWA PHB*    NOT AVBL
$$

HIZ012>013-190100-
MOLOKAI-

CITY           SKY/WX    TMP DP  RH WIND       PRES   REMARKS
MOLOKAI AIRPT  CLOUDY    78  69  73 NE18G29   30.09F
KALAUPAPA      NOT AVBL
MAKAPULAPAI*   NOT AVBL
MOLOKAI 1*     NOT AVBL
PUU ALII*      NOT AVBL
$$

HIZ016-190100-
KAHOOLAWE-

CITY           SKY/WX    TMP DP  RH WIND       PRES   REMARKS
KAHOOLAWE*     NOT AVBL
HAKIOAWA*      NOT AVBL
HONOKANAIA*      N/A     83  64  51 E20G32    30.07F
KANELOA*       NOT AVBL
KEALIALALO*    NOT AVBL
LUA MAKIKA*    NOT AVBL
$$

HIZ014>015-190100-
LANAI-

CITY           SKY/WX    TMP DP  RH WIND       PRES   REMARKS
LANAI CITY     FAIR      80  65  60 NE23      30.11F
LANAI 1*       NOT AVBL
$$

HIZ017>028-190100-
MAUI-

CITY           SKY/WX    TMP DP  RH WIND       PRES   REMARKS
KAHULUI        CLOUDY    82  65  56 NE17G28   30.05F
KAPALUA-W MAUI PTSUNNY   77  66  69 E26G33    30.06F
HANA AIRPORT   NOT AVBL
HANA*          NOT AVBL
HALEAKALA SUMM   N/A     54   9  16 E33         N/A
MAALAEA BAY*   NOT AVBL
HALEAKALA*     NOT AVBL
KAUPO GAP*     NOT AVBL
KULA 1*          N/A     64  56  74 NW7         N/A
$$

HIZ023>026-190100-
BIG ISLAND OF HAWAII COAST AND LOWER SLOPES-

CITY           SKY/WX    TMP DP  RH WIND       PRES   REMARKS
KAILUA KONA    CLOUDY    84  68  58 S12       30.02F
HILO           LGT RAIN  80  71  74 NE13      30.08F
HONOKAA*       NOT AVBL
KAWAIHAE MWT*  NOT AVBL
KAWAIHAE*      NOT AVBL
SOUTH POINT*   NOT AVBL
UPOLU AIRPORT* NOT AVBL
KAMUELA*       PTCLDY    75  61  60 NE23      30.15S
HAKALAU*         N/A     58  53  84 SE5G12      N/A
KALOKO-HONOKO* NOT AVBL
PALI 2*          N/A     75  54  46 NE18G35     N/A
KEALAKOMO*       N/A     82  64  54 E18G26      N/A
KAUPULEHU*     NOT AVBL
KAPAPALA*        N/A     78  66  66 E12G22      N/A
LOWER KAHUKU*  NOT AVBL
PUHE CS*       NOT AVBL
PUHO CS*       NOT AVBL
PTA KEAMUKU*     N/A     70  57  64 NE20G31     N/A
WAIKOLOA*      NOT AVBL
$$

HIZ027>028-190100-
BIG ISLAND OF HAWAII INTERIOR AND SUMMMITS-

CITY           SKY/WX    TMP DP  RH WIND       PRES   REMARKS
BRADSHAW FIELD CLOUDY    65  51  60 W8G18     30.35F
MK VISITOR CEN NOT AVBL
MAUNA KEA*       N/A     43 -22   6 SE33        N/A
MAUNA LOA*       N/A     59 -11   5 MISG        N/A
MAUNA LOA 1*   NOT AVBL
PTA KIPUKA*      N/A     64  55  72 NW7G14      N/A
PTA RANGE 17*    N/A     72  63  73 NW6G15      N/A
PTA WEST*        N/A    N/A N/A N/A NW12G17     N/A
NENE CABIN*    NOT AVBL
AHUMOA*        NOT AVBL
PTA PORTABLE*  NOT AVBL
PUU MALI*      NOT AVBL
$$

HIC003-190100-
NORTHWEST ISLANDS-

CITY           SKY/WX    TMP DP  RH WIND       PRES   REMARKS
MIDWAY ISLAND  CLOUDY    72  72 100 E16       30.23F
MIDWAY NOS*    NOT AVBL
FRENCH FRIGATE NOT AVBL
$$

PHZ110>124-180-190100-
BUOY REPORTS

STATION/POSITION TIME  TEMP    WIND        PRES    WAVE   SWELL
                       AIR SEA DIR/SP/G            HT/PER HT/DIR
                 (UTC) (F)     (DEG/KT/KT) (MB)    (FT/S) (FT/D)
BUOY 51001       NOT AVBL
BUOY 51101       0000   73 74   60/ 14/ 17 1021.1F   5/ 9   3/ 70
BUOY 51100       0000   73 74   60/ 14/ 16 1020.6F
BUOY 51003       2300   77 78   50/ 12/ 14 1018.2F   6/12   5
BUOY 51004       0000   77 77   60/ 19/ 23 1014.2F   9/ 9   5
BARBERS PT BUOY  NOT AVBL
WAIMEA BAY BUOY  0000      75                N/A     5/13   2/320
KAILUA BAY BUOY  0000      76                N/A     7/ 8   2/360
LANAI BUOY       0000      78                N/A     3/13   2/220
BARBERS PT 2     0000      77                N/A     4/12   3/300
PAUWELA MAUI     NOT AVBL
HILO             0000      78                N/A     8/ 8   3/350
KANEOHE BAY BUOY 0000      75                N/A     5/ 8   2/ 20
HANALEI KAUAI    0000      77                N/A     6/12   3/310
KAHULUI HARBOR   0000   78 77   20/  3/ 15 1018.0F
HONOLULU HARBOR  0000   81      70/  8/ 18 1018.6F
KILO NALU        NOT AVBL
HILO HARBOR      0000   81 77   50/  9/ 12 1018.1F
MOKUOLOE         0000   78 76   90/ 16/ 20 1019.4F
NAWILIWILI       0000      78                N/A
WHOTS BUOY       NOT AVBL
BUOY 51028       NOT AVBL
$$

......................KEY........................................
  SKY/WX - SKY CONDITIONS/PRESENT WEATHER
  TMP    - TEMPERATURE IN FAHRENHEIT
  DWPT   - DEWPOINT IN FAHRENHEIT
  RH     - RELATIVE HUMIDITY IN PERCENT
  WIND   - DIRECTION AND SPEED /MPH FOR ISLANDS...KTS FOR BUOYS/
  PRES   - MEAN SEA LEVEL PRESSURE IN INCHES OF HG
  VSB    - VISIBILITY IN MILES
  HX     - HEAT INDEX
  WCI    - WIND CHILL INDEX
  VRB    - VARIABLE WIND DIRECTION
  N/A    - NOT AVAILABLE



USA.gov is the U.S. government's official web portal to all federal, state and local government web resources and services.